Location: *
(58.4167°N, 22.5000°E)
Time: 06:40:48
(UTC+00:00)

Cosmos 2227 Rocket - Pass Details

Date: 22 September 2019
Orbit: 837 x 847 km, 71.0° (Epoch: 15 October)

Event Time Altitude Azimuth Distance (km) Brightness Sun altitude
Rises 23:21:11 0° 303° (WNW) 3,415 5.5 -30.3°
Reaches altitude 10° 23:24:07 10° 317° (NW) 2,480 4.9 -30.2°
Maximum altitude 23:28:43 24° 10° (N) 1,682 4.4 -30.0°
Drops below altitude 10° 23:33:18 10° 64° (ENE) 2,481 5.1 -29.8°
Sets 23:36:14 0° 78° (ENE) 3,415 5.8 -29.7°
